Regional Weather Roundup
Issued by NWS

Home | Current Version | Previous Version | Graphics & Text | Print | Product List | Glossary On
Versions: 1 2 3 4 5 6 7 8 9 10 11 12 13 14 15 16 17 18 19 20 21 22 23 24 25 26 27 28 29 30 31 32 33 34 35 36 37 38 39 40 41 42 43 44 45 46 47 48 49 50
000
ASUS45 KCYS 011710
RWRWY

WYOMING REGIONAL WEATHER ROUNDUP
NATIONAL WEATHER SERVICE CHEYENNE WY
1100 AM MDT TUE SEP 01 2015

NOTE:  "FAIR" INDICATES FEW OR NO CLOUDS BELOW 12,000 FEET
WITH NO SIGNIFICANT WEATHER AND/OR OBSTRUCTIONS TO VISIBILITY.

WYZ001-011800-
YELLOWSTONE NATIONAL PARK

CITY           SKY/WX    TMP DP  RH WIND       PRES   REMARKS
LK YELLOWSTONE   N/A     60  40  47 VRB3      30.21F
W YELLOWSTONE  NOT AVBL

$$
WYZ002>013-054>058-071-098>099-011800-
NORTHERN WYOMING

CITY           SKY/WX    TMP DP  RH WIND       PRES   REMARKS
JACKSON        FAIR      61  34  36 S3        30.14F
CODY           FAIR      81  30  16 W7        29.98S
GREYBULL       FAIR      75  31  19 VRB3      29.93F
WORLAND        FAIR      77  40  26 VRB3      29.95F
SHERIDAN       FAIR      82  36  19 CALM      29.91F
BUFFALO        FAIR      82  31  15 E9        29.99S
GILLETTE       FAIR      84  33  16 W7        29.94S
HULETT         FAIR      77  50  38 SW13      29.95S
NEWCASTLE        N/A     75  43  31 MISG      29.98S

$$
WYZ014>020-022>026-101>103-011800-
CENTRAL WYOMING

CITY           SKY/WX    TMP DP  RH WIND       PRES   REMARKS
BIG PINEY      FAIR      63  29  27 VRB6      30.20F
PINEDALE       FAIR      68  30  24 SE8       30.21S
DUBOIS         FAIR      72  23  16 W20G31    30.15R
LANDER         FAIR      73  31  21 N5        30.06S
RIVERTON       FAIR      72  37  28 E6        30.07S
CASPER         FAIR      80  40  23 SW17G25   30.06S
DOUGLAS        FAIR      83  38  20 W13       30.03F

$$
WYZ021-027>030-104>119-011800-
SOUTHERN WYOMING

CITY           SKY/WX    TMP DP  RH WIND       PRES   REMARKS
EVANSTON       FAIR      76  40  27 SW21G28   30.20S
KEMMERER       FAIR      73  34  23 W17       30.21S
FORT BRIDGER   MOSUNNY   77  37  24 W18G26    30.23R
ROCK SPRINGS   FAIR      70  42  36 VRB5      30.19F
DIXON          FAIR      72  47  41 SW12G17   30.25S
RAWLINS        FAIR      76  40  27 SW18      30.20S
SARATOGA       FAIR      73  41  31 W16G23    30.23S
LARAMIE        FAIR      72  44  36 SW15G23   30.22S
CHEYENNE       FAIR      81  41  24 W16       30.15S
TORRINGTON     FAIR      80  47  31 VRB3      29.99S
PINE BLUFFS    FAIR      81  43  26 W5        30.09S

$$


USA.gov is the U.S. government's official web portal to all federal, state and local government web resources and services.